Tracking 28529 objects as of 25-Feb-2024
HD Live streaming from Space Station
objects crossing your sky now

STARLINK-5660

Track STARLINK-5660 now!
10-day predictions
STARLINK-5660 is classified as:


NORAD ID: 55335
Int'l Code: 2023-013E
Perigee: 565.4 km
Apogee: 567.1 km
Inclination: 43.0 °
Period: 95.8 minutes
Semi major axis: 6937 km
RCS: Unknown
Launch date: January 26, 2023
Source: United States (US)
Launch site: AIR FORCE EASTERN TEST RANGE (AFETR)
Your satellite tracking list
Your tracking list is empty




NASA's NSSDC Master Catalog

Two Line Element Set (TLE):
1 55335U 23013E   24055.91962730  .00000065  00000-0  19906-4 0  9993
2 55335  43.0033  22.0689 0001234 264.2270  95.8431 15.02537860 59827
Source of the keplerian elements: AFSPC